Flag for Qatar Weather past 2 weeks in Al Khor, Qatar

Now
84 °F

Clear.


Feels Like: 91 °F
Forecast: 83 / 92 °F
Wind: 2 mph from North

Location: Doha International Airport

Current Time: Oct 21, 2014 at 4:03:02 AM

Latest Report: Oct 21, 2014 at 3:30 AM


Visibility: 10 mi

Pressure: 29.89 "Hg

Humidity: 70%

Dew point: 73 °F

Location of Al KhorLocation

Historic Weather in Al Khor — Graph

°F

Al Khor temperature yesterday

Maximum temperature yesterday: 104 °F (at 1:00 PM)
Minimum temperature yesterday: 82 °F (at 1:00 AM)
Average temperature yesterday: 92 °F

Past Weeks' High & Low Weather Summary

 TemperatureHumidityPressure
High104 °F (Oct 17, 1:00 PM)100% (Oct 13, 3:00 PM)29.98 "Hg (Oct 13, 3:00 PM)
Low75 °F (Oct 13, 3:00 PM)11% (Oct 18, 12:30 PM)29.77 "Hg (Oct 8, 2:00 PM)
Average90 °F57%29.89 "Hg
* Reported Oct 6 2:00 AM — Oct 21 2:30 AM, Al Khor, Weather by CustomWeather, © 2014

Note: Actual official high and low records may vary slightly from our data, if they occured in-between our weather recording intervals... More about our weather records

Advertising

Al Khor weather history for previous 24 hours

 ConditionsComfort  
Time TempWeatherWind HumidityBarometerVisibility
2:30 AM
Oct 21
86 °FPassing clouds.3 mph66%29.89 "HgN/A
2:00 AM86 °FClear.5 mph66%29.89 "Hg10 mi
1:00 AM86 °FPassing clouds.3 mph70%29.89 "HgN/A
12:00 AM86 °FClear.6 mph70%29.89 "Hg10 mi
11:30 PM
Oct 20
88 °FClear.7 mph66%29.89 "Hg10 mi
11:00 PM86 °FClear.7 mph75%29.89 "Hg10 mi
10:30 PM88 °FClear.7 mph70%29.89 "Hg10 mi
10:00 PM88 °FClear.7 mph70%29.92 "Hg10 mi
9:30 PM88 °FClear.7 mph70%29.92 "Hg10 mi
9:00 PM88 °FClear.8 mph70%29.92 "Hg10 mi
8:00 PM88 °FClear.8 mph70%29.89 "Hg10 mi
7:30 PM88 °FPassing clouds.7 mph70%29.89 "HgN/A
7:00 PM90 °FClear.8 mph67%29.89 "Hg10 mi
6:00 PM91 °FClear.5 mph52%29.86 "Hg10 mi
5:00 PM95 °FPassing clouds.6 mph41%29.86 "HgN/A
4:00 PM97 °FPassing clouds.10 mph32%29.83 "HgN/A
3:30 PM99 °FPassing clouds.10 mph29%29.83 "HgN/A
3:00 PM99 °FPassing clouds.13 mph35%29.83 "HgN/A
2:00 PM102 °FPassing clouds.9 mph16%29.83 "HgN/A
1:30 PM100 °FPassing clouds.9 mph24%29.83 "HgN/A
1:00 PM104 °FPassing clouds.9 mph19%29.86 "HgN/A
12:30 PM102 °FPassing clouds.8 mph18%29.86 "HgN/A
12:00 PM102 °FPassing clouds.6 mph23%29.86 "HgN/A
11:30 AM100 °FPassing clouds.9 mph27%29.89 "HgN/A
11:00 AM99 °FSunny.10 mph29%29.89 "Hg10 mi
10:30 AM99 °FSunny.12 mph29%29.89 "Hg10 mi
10:00 AM97 °FSunny.12 mph32%29.92 "Hg10 mi
9:30 AM93 °FSunny.12 mph39%29.92 "Hg10 mi
9:00 AM91 °FPassing clouds.8 mph44%29.92 "HgN/A
8:30 AM90 °FSunny.8 mph49%29.92 "Hg10 mi
8:00 AM88 °FPassing clouds.7 mph49%29.92 "HgN/A
6:00 AM82 °FPassing clouds.5 mph62%29.89 "HgN/A
5:00 AM82 °FPassing clouds.3 mph66%29.86 "HgN/A
4:00 AM82 °FClear.No wind66%29.86 "Hg10 mi
Weather by CustomWeather, © 2014

See weather overviewHow to use our weather pages